Observations for Trim Patrick St
| Time | AQI | Temp °C | Hum % | Pres Pa | CO μg/m³ | H₂S μg/m³ | NO μg/m³ | NO₂ μg/m³ | O₃ μg/m³ | SO₂ μg/m³ | PM1 μg/m³ | PM2.5 μg/m³ | PM10 μg/m³ |
|---|---|---|---|---|---|---|---|---|---|---|---|---|---|
| Thursday 27 August 2026 | |||||||||||||
| 13:02 | 3 | 19.1 | 80 | 38,460 | 0.05 | 3.68 | 1.81 | 24.07 | 44.83 | 0 | 17.43 | 24.11 | 26.52 |
| 13:01 | 3 | 19.1 | 80 | 38,460 | 0.04 | 2.87 | 1.77 | 28.64 | 44.33 | 0 | 18.29 | 26.22 | 28.84 |
| 13:00 | 3 | 19.1 | 80 | 38,460 | 0.03 | 2.37 | 2.04 | 25.88 | 34.83 | 2.12 | 18.29 | 24.81 | 27.29 |
| 12:59 | 3 | 19.1 | 80 | 38,460 | 0.03 | 2.84 | 1.26 | 20.27 | 37.56 | 0.59 | 17.43 | 24.81 | 27.29 |
| 12:58 | 3 | 19.1 | 80 | 38,460 | 0.02 | 3.18 | 1.42 | 19.15 | 50.28 | 0 | 18.29 | 24.8 | 27.28 |
| 12:57 | 3 | 19.1 | 80 | 38,460 | 0.05 | 4.02 | 1.54 | 18.67 | 52 | 0 | 20 | 24.11 | 26.52 |
| 12:56 | 3 | 19.1 | 80 | 38,460 | 0.16 | 3.79 | 1.56 | 24.72 | 46.66 | 0.21 | 18.29 | 22.7 | 24.97 |
| 12:55 | 3 | 19.1 | 80 | 38,460 | 0.02 | 2.76 | 1.15 | 17.15 | 47.46 | 0 | 18.29 | 24.12 | 26.53 |
| 12:54 | 3 | 19.1 | 80 | 38,460 | 0.02 | 2.71 | 1.32 | 20.72 | 52.25 | 0 | 18.29 | 26.22 | 28.84 |
| 12:53 | 3 | 19.1 | 80 | 38,460 | 0.03 | 1.29 | 1.14 | 11.96 | 51.99 | 1 | 18.29 | 24.83 | 27.32 |
| 12:52 | 3 | 19.1 | 80 | 38,460 | 0.02 | 1.77 | 1.06 | 14.51 | 43.64 | 0.49 | 18.29 | 24.13 | 26.55 |
| 12:51 | 3 | 19.2 | 80 | 38,460 | 0 | 2.05 | 0.97 | 15.41 | 53.44 | 0 | 19.14 | 26.95 | 29.64 |
| 12:50 | 3 | 19.1 | 80 | 38,460 | 0.01 | 1.69 | 0.93 | 14.2 | 42.03 | 0.27 | 18.29 | 24.16 | 26.57 |
| 12:49 | 3 | 19.2 | 80 | 38,460 | 0.04 | 2.87 | 0.81 | 18.48 | 47.01 | 0.09 | 18.29 | 25.56 | 28.12 |
| 12:48 | 3 | 19.2 | 80 | 38,460 | 0.01 | 2.13 | 0.77 | 18.49 | 53.14 | 0 | 20 | 25.56 | 28.12 |
| 12:47 | 3 | 19.2 | 80 | 38,460 | 0.01 | 1.63 | 0.98 | 11.76 | 51.29 | 0 | 18.29 | 24.87 | 27.36 |
| 12:46 | 3 | 19.2 | 80 | 38,460 | 0 | 1.87 | 0.9 | 12.43 | 45.06 | 0.53 | 18.29 | 24.86 | 27.35 |
| 12:45 | 3 | 19.2 | 80 | 38,460 | 0 | 3.05 | 0.91 | 15.4 | 48.26 | 0.26 | 18.29 | 25.57 | 28.13 |
| 12:44 | 3 | 19.2 | 80 | 38,460 | 0.01 | 3.31 | 0.84 | 18.49 | 55.01 | 0 | 19.14 | 26.27 | 28.9 |
| 12:43 | 3 | 19.2 | 79 | 38,460 | 0 | 0.71 | 1.01 | 13.84 | 52.36 | 0 | 16.57 | 23.51 | 25.86 |